When you browse on this site, cookies collect data to enhance your experience and personalize the content and advertising you see.
Visit our Privacy Policy to learn more. By continuing to use the site, you agree to this use of cookies and data.
  • In Österreich
  • Länderverzeichnis
  • Für 7 Tage
  • Wassertemperatur
  • Satellitenkarten
  • Wetterkarte
  • News
  • Widgets
  • user-avatar
    Anmelden

    Stündliche Wetter Rop Wiang

    Heute, 21 April, Sonntag

    Zeit Temperatur Niederschläge Wind Luftdruck Luftfeuchtigkeit
    00:00 +33°C° 0 mm 1 m/S 720 mmHg 27%
    01:00 +30°C° 0 mm 0 m/S 720 mmHg 29%
    02:00 +29°C° 0 mm 0 m/S 720 mmHg 31%
    03:00 +29°C° 0 mm 0 m/S 720 mmHg 33%
    04:00 +28°C° 0 mm 0 m/S 720 mmHg 35%
    05:00 +28°C° 0 mm 0 m/S 720 mmHg 35%
    06:00 +28°C° 0 mm 0 m/S 721 mmHg 36%
    07:00 +28°C° 0 mm 0 m/S 721 mmHg 36%
    08:00 +32°C° 0 mm 0 m/S 722 mmHg 30%
    09:00 +37°C° 0 mm 0 m/S 722 mmHg 24%
    10:00 +41°C° 0 mm 0 m/S 723 mmHg 18%
    11:00 +41°C° 0 mm 0 m/S 722 mmHg 17%
    12:00 +45°C° 0 mm 1 m/S 721 mmHg 16%
    13:00 +47°C° 0 mm 2 m/S 721 mmHg 14%
    14:00 +46°C° 0 mm 2 m/S 720 mmHg 15%
    15:00 +44°C° 0 mm 1 m/S 719 mmHg 16%
    16:00 +43°C° 0 mm 1 m/S 719 mmHg 17%
    17:00 +41°C° 0.2 mm 1 m/S 719 mmHg 20%
    18:00 +39°C° 0.2 mm 1 m/S 719 mmHg 23%
    19:00 +37°C° 0.2 mm 1 m/S 719 mmHg 26%
    20:00 +36°C° 0 mm 1 m/S 720 mmHg 28%
    21:00 +35°C° 0 mm 1 m/S 720 mmHg 30%
    22:00 +34°C° 0 mm 1 m/S 721 mmHg 32%
    23:00 +34°C° 0 mm 1 m/S 721 mmHg 33%

    Morgen, 22 April, Montag

    Zeit Temperatur Niederschläge Wind Luftdruck Luftfeuchtigkeit
    00:00 +34°C° 0 mm 1 m/S 721 mmHg 34%
    01:00 +33°C° 0 mm 1 m/S 721 mmHg 35%
    02:00 +32°C° 0 mm 1 m/S 721 mmHg 38%
    03:00 +31°C° 0 mm 1 m/S 720 mmHg 42%
    04:00 +30°C° 0 mm 1 m/S 720 mmHg 45%
    05:00 +28°C° 0 mm 0 m/S 721 mmHg 44%
    06:00 +28°C° 0 mm 0 m/S 721 mmHg 44%
    07:00 +28°C° 0 mm 0 m/S 722 mmHg 43%
    08:00 +32°C° 0 mm 0 m/S 722 mmHg 37%
    09:00 +37°C° 0 mm 1 m/S 723 mmHg 30%
    10:00 +42°C° 0 mm 1 m/S 723 mmHg 23%
    11:00 +43°C° 0 mm 1 m/S 723 mmHg 21%
    12:00 +44°C° 0 mm 1 m/S 722 mmHg 18%
    13:00 +46°C° 0 mm 2 m/S 722 mmHg 16%
    14:00 +45°C° 0 mm 2 m/S 721 mmHg 18%
    15:00 +43°C° 0 mm 2 m/S 720 mmHg 20%
    16:00 +41°C° 0 mm 2 m/S 720 mmHg 21%
    17:00 +40°C° 0 mm 2 m/S 720 mmHg 23%
    18:00 +39°C° 0 mm 2 m/S 720 mmHg 25%
    19:00 +38°C° 0 mm 2 m/S 720 mmHg 26%
    20:00 +36°C° 0 mm 1 m/S 721 mmHg 29%
    21:00 +35°C° 0 mm 1 m/S 722 mmHg 32%
    22:00 +34°C° 0 mm 1 m/S 723 mmHg 35%
    23:00 +33°C° 0.7 mm 1 m/S 723 mmHg 41%

    übermorgen, 23 April, Dienstag

    Zeit Temperatur Niederschläge Wind Luftdruck Luftfeuchtigkeit
    00:00 +31°C° 0.7 mm 1 m/S 723 mmHg 48%
    01:00 +28°C° 0.7 mm 0 m/S 722 mmHg 54%
    02:00 +28°C° 0 mm 0 m/S 722 mmHg 57%
    03:00 +27°C° 0 mm 0 m/S 722 mmHg 59%
    04:00 +26°C° 0 mm 0 m/S 722 mmHg 61%
    05:00 +27°C° 0 mm 0 m/S 722 mmHg 61%
    06:00 +27°C° 0 mm 0 m/S 723 mmHg 61%
    07:00 +27°C° 0 mm 0 m/S 724 mmHg 61%
    08:00 +30°C° 0 mm 0 m/S 724 mmHg 52%
    09:00 +36°C° 0 mm 1 m/S 725 mmHg 43%
    10:00 +40°C° 0 mm 1 m/S 725 mmHg 33%
    11:00 +42°C° 0 mm 1 m/S 725 mmHg 29%
    12:00 +44°C° 0 mm 1 m/S 724 mmHg 24%
    13:00 +45°C° 0 mm 1 m/S 723 mmHg 19%
    14:00 +44°C° 0 mm 1 m/S 722 mmHg 19%
    15:00 +44°C° 0 mm 1 m/S 721 mmHg 20%
    16:00 +43°C° 0 mm 1 m/S 721 mmHg 20%
    17:00 +41°C° 0 mm 1 m/S 721 mmHg 22%
    18:00 +40°C° 0 mm 1 m/S 721 mmHg 24%
    19:00 +37°C° 0 mm 1 m/S 722 mmHg 27%
    20:00 +36°C° 0 mm 1 m/S 722 mmHg 29%
    21:00 +35°C° 0 mm 1 m/S 723 mmHg 32%
    22:00 +34°C° 0 mm 1 m/S 724 mmHg 34%
    23:00 +33°C° 0.1 mm 1 m/S 723 mmHg 38%

    24 April, Mittwoch

    Zeit Temperatur Niederschläge Wind Luftdruck Luftfeuchtigkeit
    00:00 +32°C° 0.1 mm 1 m/S 723 mmHg 41%
    01:00 +31°C° 0.1 mm 1 m/S 723 mmHg 44%
    02:00 +30°C° 0 mm 1 m/S 723 mmHg 45%
    03:00 +28°C° 0 mm 0 m/S 722 mmHg 47%
    04:00 +27°C° 0 mm 0 m/S 722 mmHg 49%
    05:00 +27°C° 0 mm 0 m/S 723 mmHg 49%
    06:00 +28°C° 0 mm 0 m/S 723 mmHg 49%
    07:00 +28°C° 0 mm 0 m/S 724 mmHg 49%
    08:00 +32°C° 0 mm 0 m/S 724 mmHg 41%
    09:00 +35°C° 0 mm 0 m/S 725 mmHg 33%
    10:00 +42°C° 0 mm 1 m/S 725 mmHg 25%
    11:00 +44°C° 0 mm 1 m/S 725 mmHg 22%
    12:00 +45°C° 0 mm 1 m/S 724 mmHg 18%
    13:00 +47°C° 0 mm 1 m/S 723 mmHg 15%
    14:00 +46°C° 0 mm 1 m/S 722 mmHg 16%
    15:00 +45°C° 0 mm 1 m/S 722 mmHg 17%
    16:00 +43°C° 0 mm 1 m/S 721 mmHg 18%
    17:00 +42°C° 0 mm 1 m/S 721 mmHg 20%
    18:00 +40°C° 0 mm 1 m/S 721 mmHg 22%
    19:00 +39°C° 0 mm 1 m/S 721 mmHg 25%
    20:00 +37°C° 0 mm 1 m/S 722 mmHg 27%
    21:00 +36°C° 0 mm 1 m/S 722 mmHg 29%
    22:00 +35°C° 0 mm 1 m/S 723 mmHg 31%
    23:00 +33°C° 0.3 mm 1 m/S 722 mmHg 35%

    25 April, Donnerstag

    Zeit Temperatur Niederschläge Wind Luftdruck Luftfeuchtigkeit
    00:00 +32°C° 0.3 mm 1 m/S 722 mmHg 40%
    01:00 +31°C° 0.3 mm 1 m/S 722 mmHg 45%
    02:00 +31°C° 0 mm 1 m/S 722 mmHg 46%
    03:00 +29°C° 0 mm 0 m/S 722 mmHg 47%
    04:00 +28°C° 0 mm 0 m/S 721 mmHg 48%
    05:00 +28°C° 0 mm 0 m/S 722 mmHg 48%
    06:00 +29°C° 0 mm 0 m/S 723 mmHg 47%
    07:00 +29°C° 0 mm 0 m/S 723 mmHg 47%
    08:00 +33°C° 0 mm 0 m/S 724 mmHg 38%
    09:00 +36°C° 0 mm 0 m/S 724 mmHg 29%
    10:00 +40°C° 0 mm 0 m/S 725 mmHg 21%
    11:00 +42°C° 0 mm 0 m/S 724 mmHg 18%
    12:00 +47°C° 0 mm 1 m/S 723 mmHg 16%
    13:00 +48°C° 0 mm 1 m/S 722 mmHg 13%
    14:00 +47°C° 0 mm 1 m/S 722 mmHg 14%
    15:00 +47°C° 0 mm 2 m/S 721 mmHg 14%
    16:00 +46°C° 0 mm 2 m/S 720 mmHg 15%
    17:00 +43°C° 0 mm 2 m/S 720 mmHg 17%
    18:00 +41°C° 0 mm 2 m/S 721 mmHg 20%
    19:00 +39°C° 0 mm 1 m/S 721 mmHg 22%
    20:00 +37°C° 0 mm 1 m/S 721 mmHg 24%
    21:00 +36°C° 0 mm 1 m/S 722 mmHg 27%
    22:00 +35°C° 0 mm 1 m/S 722 mmHg 29%
    23:00 +34°C° 0 mm 1 m/S 722 mmHg 31%

    26 April, Freitag

    Zeit Temperatur Niederschläge Wind Luftdruck Luftfeuchtigkeit
    00:00 +33°C° 0 mm 1 m/S 721 mmHg 33%
    01:00 +32°C° 0 mm 1 m/S 721 mmHg 35%
    02:00 +32°C° 0 mm 1 m/S 721 mmHg 37%
    03:00 +29°C° 0 mm 0 m/S 721 mmHg 38%
    04:00 +29°C° 0 mm 0 m/S 721 mmHg 40%
    05:00 +29°C° 0 mm 0 m/S 722 mmHg 40%
    06:00 +29°C° 0 mm 0 m/S 722 mmHg 40%
    07:00 +29°C° 0 mm 0 m/S 723 mmHg 40%
    08:00 +32°C° 0 mm 0 m/S 723 mmHg 34%
    09:00 +37°C° 0 mm 1 m/S 723 mmHg 28%
    10:00 +42°C° 0 mm 1 m/S 724 mmHg 21%
    11:00 +43°C° 0 mm 1 m/S 723 mmHg 19%
    12:00 +45°C° 0 mm 1 m/S 723 mmHg 16%
    13:00 +47°C° 0 mm 1 m/S 722 mmHg 13%
    14:00 +46°C° 0 mm 1 m/S 721 mmHg 14%
    15:00 +46°C° 0 mm 2 m/S 721 mmHg 15%
    16:00 +45°C° 0 mm 2 m/S 720 mmHg 16%
    17:00 +42°C° 0 mm 2 m/S 720 mmHg 18%
    18:00 +40°C° 0 mm 2 m/S 720 mmHg 21%
    19:00 +39°C° 0 mm 2 m/S 721 mmHg 24%
    20:00 +38°C° 0 mm 2 m/S 721 mmHg 26%
    21:00 +38°C° 0 mm 2 m/S 722 mmHg 28%
    22:00 +37°C° 0 mm 2 m/S 722 mmHg 29%
    23:00 +37°C° 0 mm 2 m/S 722 mmHg 30%
    Mehr zeigen